Zurück zum Katalog

STARLINK-3240

AktivKommunikationVLEO
NORAD 49728·PAYLOAD·🇺🇸 United States

Gestartet Dec 2, 2021 von Cape Canaveral Space Force Station

Loading…

Nächste Überflüge (nächste 24 Stunden)

TLE

AktuellSource: CelesTrak SupGP

Epoche: Sep 15, 2026, 01:55 UTC

1 49728C 21115E   26258.08034722  .00003083  00000+0  91100-4 0  2585
2 49728  53.1607  14.7118 0001146  86.7999  38.3216 15.34379856    11

Verfolge STARLINK-3240 in Echtzeit mit AllMySat

Download on the App Store